Date_and_time,latitude,longitude,wind_speed,RelWindDirFrom,WindDirFrom,air_pressure,air_temperature,relative_humidity,Temp,platform_speed_wrt_ground,air_pressure_at_mean_sea_level,platform_orientation
2019-12-08 00:00,50.6304466666667,-96.9807633333333,2.9,5.3,294,975.09,-1.8,99,0.84,0.0,1002.77,38.0
2019-12-08 00:10,50.6304616666667,-96.9807633333333,3.6,5.2,305,975.07,-1.8,99,0.84,0.0,1002.75,38.0
2019-12-08 00:20,50.630455,-96.9807683333333,3.4,5.2,299,975.12,-1.8,99,0.85,0.0,1002.80,38.0
2019-12-08 00:30,50.63045,-96.980765,3.8,6.4,303,975.13,-1.9,99,0.85,0.0,1002.81,38.0
2019-12-08 00:40,50.63045,-96.9807633333333,4.1,5.6,312,975.14,-1.9,100,0.85,0.0,1002.83,38.0
2019-12-08 00:50,50.6304483333333,-96.9807633333333,4.0,5.7,319,975.16,-2.0,100,0.84,0.0,1002.86,38.0
2019-12-08 01:00,50.63045,-96.9807633333333,3.7,5.2,330,975.25,-2.0,100,0.84,0.0,1002.95,14.5
2019-12-08 01:10,50.63045,-96.9807633333333,4.5,6.1,332,975.38,-2.0,100,0.83,0.0,1003.08,14.5
2019-12-08 01:20,50.6304566666667,-96.9807766666667,5.2,6.7,330,975.47,-2.0,100,0.84,0.0,1003.18,14.5
2019-12-08 01:30,50.6304516666667,-96.9807266666667,5.1,6.8,332,975.56,-1.9,100,0.85,0.0,1003.28,14.5
2019-12-08 01:40,50.6304416666667,-96.9807666666667,6.4,15.6,337,975.75,-1.8,100,0.85,0.0,1003.46,14.5
2019-12-08 01:50,50.630445,-96.9807783333333,11.7,17.2,349,975.77,-1.5,100,0.85,0.0,1003.46,14.5
2019-12-08 02:00,50.6304466666667,-96.9807666666667,16.4,20.5,359,975.64,-1.4,100,0.85,0.0,1003.33,360.0
2019-12-08 02:10,50.6304483333333,-96.98077,15.0,18.6,354,975.85,-1.7,100,0.85,0.0,1003.55,360.0
2019-12-08 02:20,50.63045,-96.9807733333333,17.3,23.5,357,975.70,-1.9,99,0.84,0.0,1003.41,360.0
2019-12-08 02:30,50.6304516666667,-96.9807716666667,17.4,23.0,354,975.80,-2.2,99,0.85,0.0,1003.53,360.0
2019-12-08 02:40,50.6304516666667,-96.9807733333333,16.1,22.4,349,976.08,-2.5,99,0.86,0.0,1003.84,360.0
2019-12-08 02:50,50.6304516666667,-96.9807716666667,16.5,21.1,351,976.35,-2.8,99,0.88,0.0,1004.13,360.0
2019-12-08 03:00,50.6304516666667,-96.9807716666667,14.4,22.0,339,976.76,-3.2,99,0.87,0.0,1004.57,347.4
2019-12-08 03:10,50.6304533333333,-96.98077,16.3,20.8,341,976.99,-4.1,97,0.87,0.0,1004.86,347.4
2019-12-08 03:20,50.6304533333333,-96.98077,16.2,27.8,342,977.27,-4.7,96,0.85,0.0,1005.18,347.4
2019-12-08 03:30,50.6304533333333,-96.98077,17.9,23.2,341,977.40,-5.4,94,0.85,0.0,1005.34,347.4
2019-12-08 03:40,50.6304533333333,-96.98077,17.3,21.9,339,977.43,-5.8,93,0.85,0.0,1005.38,347.4
2019-12-08 03:50,50.6304583333333,-96.9807633333333,16.7,24.9,340,977.56,-6.0,92,0.86,0.0,1005.52,347.4
2019-12-08 04:00,50.6304566666667,-96.9807616666667,16.4,22.6,337,977.71,-6.2,92,0.87,0.0,1005.69,90.0
2019-12-08 04:10,50.6304466666667,-96.980765,17.3,26.0,337,977.84,-6.3,91,0.88,0.0,1005.85,90.0
2019-12-08 04:20,50.6304483333333,-96.9807566666667,16.3,23.8,336,978.05,-6.7,90,0.87,0.0,1006.10,90.0
2019-12-08 04:30,50.63045,-96.9807583333333,17.1,26.5,338,978.47,-7.1,90,0.86,0.0,1006.56,90.0
2019-12-08 04:40,50.6304516666667,-96.980755,16.8,25.1,336,978.66,-7.3,89,0.85,0.0,1006.79,90.0
2019-12-08 04:50,50.63045,-96.98076,20.4,30.8,338,978.68,-7.8,88,0.85,0.0,1006.86,90.0
2019-12-08 05:00,50.6304466666667,-96.9807583333333,15.4,26.4,332,979.44,-8.0,89,0.85,0.0,1007.70,90.0
2019-12-08 05:10,50.630455,-96.9807716666667,17.3,26.0,332,979.59,-8.2,90,0.86,0.0,1007.90,90.0
2019-12-08 05:20,50.6304566666667,-96.9807633333333,20.9,28.3,337,979.39,-8.5,89,0.86,0.0,1007.75,90.0
2019-12-08 05:30,50.630455,-96.98076,18.4,25.2,333,979.88,-8.8,88,0.85,0.0,1008.29,90.0
2019-12-08 05:40,50.6304516666667,-96.9807633333333,18.9,27.9,337,980.09,-9.0,88,0.84,0.0,1008.52,90.0
2019-12-08 05:50,50.6304516666667,-96.980765,18.6,28.5,334,980.37,-9.2,86,0.84,0.0,1008.84,90.0
2019-12-08 06:00,50.6304516666667,-96.980765,19.7,29.1,339,980.72,-9.4,84,0.83,0.0,1009.22,90.0
2019-12-08 06:10,50.63045,-96.9807633333333,19.9,29.1,336,980.85,-9.7,83,0.83,0.0,1009.39,90.0
2019-12-08 06:20,50.6304516666667,-96.980765,18.1,26.7,334,981.34,-10.1,82,0.84,0.0,1009.92,90.0
2019-12-08 06:30,50.6304516666667,-96.9807666666667,18.5,26.1,336,981.57,-10.5,82,0.84,0.0,1010.21,90.0
2019-12-08 06:40,50.63044,-96.98077,19.0,28.5,339,981.88,-10.9,81,0.85,0.0,1010.56,90.0
2019-12-08 06:50,50.6304483333333,-96.98077,16.7,24.5,338,982.48,-11.0,81,0.84,0.0,1011.20,90.0
2019-12-08 07:00,50.630445,-96.9807616666667,17.8,24.6,340,982.85,-11.3,80,0.84,0.0,1011.62,360.0
2019-12-08 07:10,50.6304483333333,-96.9807633333333,17.3,24.1,341,983.32,-11.6,80,0.85,0.0,1012.13,360.0
2019-12-08 07:20,50.6304483333333,-96.980765,17.5,25.0,343,983.47,-11.8,80,0.85,0.0,1012.31,360.0
2019-12-08 07:30,50.63045,-96.9807666666667,18.0,29.8,344,983.80,-12.0,79,0.85,0.0,1012.68,360.0
2019-12-08 07:40,50.6304516666667,-96.9807683333333,16.9,24.0,339,984.09,-12.3,78,0.84,0.0,1013.01,360.0
2019-12-08 07:50,50.6304516666667,-96.9807683333333,16.3,26.0,341,984.28,-12.6,78,0.83,0.0,1013.22,360.0
2019-12-08 08:00,50.6304533333333,-96.9807683333333,17.9,26.5,346,984.26,-12.9,79,0.81,0.0,1013.23,311.7
2019-12-08 08:10,50.6304533333333,-96.9807666666667,20.4,28.1,348,984.23,-13.2,78,0.81,0.0,1013.25,311.7
2019-12-08 08:20,50.6304533333333,-96.9807683333333,20.3,29.1,345,984.45,-13.3,78,0.82,0.0,1013.50,311.7
2019-12-08 08:30,50.63045,-96.98075,19.2,26.4,346,984.95,-13.6,77,0.83,0.0,1014.05,311.7
2019-12-08 08:40,50.6304516666667,-96.9807566666667,18.4,24.9,350,985.14,-13.7,77,0.82,0.0,1014.26,311.7
2019-12-08 08:50,50.63045,-96.98076,17.4,25.6,340,985.33,-13.9,78,0.82,0.0,1014.48,311.7
2019-12-08 09:00,50.6304516666667,-96.980765,21.6,27.0,349,985.17,-14.2,77,0.82,0.0,1014.36,0.0
2019-12-08 09:10,50.6304433333333,-96.9807616666667,16.0,24.2,344,985.66,-14.4,77,0.81,0.0,1014.88,0.0
2019-12-08 09:20,50.63045,-96.9807716666667,16.1,24.4,338,985.89,-14.7,77,0.79,0.0,1015.14,0.0
2019-12-08 09:30,50.6304533333333,-96.9807716666667,18.6,24.5,344,986.04,-15.0,75,0.78,0.0,1015.34,0.0
2019-12-08 09:40,50.6304533333333,-96.98077,20.6,26.9,343,986.17,-15.4,74,0.78,0.0,1015.51,0.0
2019-12-08 09:50,50.6304533333333,-96.98077,16.8,24.6,343,986.59,-15.6,74,0.78,0.0,1015.97,0.0
2019-12-08 10:00,50.6304533333333,-96.98077,16.9,23.2,342,986.78,-15.8,73,0.78,0.0,1016.20,345.5
2019-12-08 10:10,50.630455,-96.9807716666667,18.9,27.0,346,987.07,-16.0,71,0.78,0.0,1016.52,345.5
2019-12-08 10:20,50.6304366666667,-96.9807783333333,18.1,22.8,342,987.37,-16.3,71,0.79,0.0,1016.85,345.5
2019-12-08 10:30,50.630435,-96.9807616666667,17.5,23.4,343,987.65,-16.4,71,0.79,0.0,1017.15,345.5
2019-12-08 10:40,50.6304616666667,-96.9807583333333,17.5,24.0,348,987.85,-16.6,73,0.79,0.0,1017.38,345.5
2019-12-08 10:50,50.6304516666667,-96.9807583333333,16.8,23.8,346,988.09,-16.7,74,0.79,0.0,1017.66,345.5
2019-12-08 11:00,50.6304533333333,-96.98076,17.6,25.7,353,988.29,-16.8,74,0.79,0.0,1017.87,90.0
2019-12-08 11:10,50.6304533333333,-96.98076,15.5,23.0,350,988.60,-17.0,73,0.79,0.0,1018.23,90.0
2019-12-08 11:20,50.6304516666667,-96.9807616666667,14.8,24.5,350,988.80,-17.0,73,0.78,0.0,1018.46,90.0
2019-12-08 11:30,50.63045,-96.9807633333333,14.7,20.3,348,989.07,-17.3,73,0.78,0.0,1018.76,90.0
2019-12-08 11:40,50.6304383333333,-96.980785,14.0,21.0,348,989.05,-17.5,74,0.76,0.0,1018.77,90.0
2019-12-08 11:50,50.6304283333333,-96.98077,16.1,21.4,351,988.98,-17.6,75,0.76,0.0,1018.72,90.0
2019-12-08 12:00,50.63044,-96.9807783333333,17.0,24.4,343,989.01,-17.8,74,0.75,0.0,1018.77,229.4
2019-12-08 12:10,50.6304433333333,-96.9807683333333,15.9,21.0,345,989.24,-18.0,74,0.75,0.0,1019.03,229.4
2019-12-08 12:20,50.630445,-96.980765,15.0,20.9,345,989.43,-18.1,74,0.75,0.0,1019.25,229.4
2019-12-08 12:30,50.6304466666667,-96.9807633333333,14.7,21.6,343,989.69,-18.2,74,0.74,0.0,1019.53,229.4
2019-12-08 12:40,50.6304466666667,-96.9807633333333,13.4,19.4,342,989.97,-18.3,74,0.74,0.0,1019.83,229.4
2019-12-08 12:50,50.6304466666667,-96.980765,13.1,18.9,344,990.27,-18.4,74,0.74,0.0,1020.15,229.4
2019-12-08 13:00,50.6304483333333,-96.9807666666667,11.3,16.5,341,990.45,-18.5,75,0.73,0.0,1020.35,142.0
2019-12-08 13:10,50.6304483333333,-96.9807666666667,12.0,16.0,341,990.57,-18.6,74,0.72,0.0,1020.49,142.0
2019-12-08 13:20,50.6304383333333,-96.980755,12.7,18.3,342,990.71,-18.7,75,0.71,0.0,1020.65,142.0
2019-12-08 13:30,50.630455,-96.9807783333333,13.1,18.8,338,990.72,-18.8,75,0.71,0.0,1020.68,142.0
2019-12-08 13:40,50.63045,-96.980775,12.6,17.1,336,990.92,-19.0,74,0.70,0.0,1020.91,142.0
2019-12-08 13:50,50.6304533333333,-96.9807716666667,12.2,17.1,340,991.15,-19.1,75,0.70,0.0,1021.16,142.0
2019-12-08 14:00,50.6304533333333,-96.98077,12.3,17.6,342,991.28,-19.2,75,0.70,0.0,1021.31,270.0
2019-12-08 14:10,50.6304533333333,-96.9807683333333,11.1,14.4,340,991.56,-19.3,75,0.70,0.0,1021.61,270.0
2019-12-08 14:20,50.6304516666667,-96.9807666666667,12.8,16.4,338,991.57,-19.4,75,0.69,0.0,1021.63,270.0
2019-12-08 14:30,50.6304533333333,-96.9807683333333,12.6,17.1,335,991.64,-19.5,75,0.68,0.0,1021.72,270.0
2019-12-08 14:40,50.6304516666667,-96.9807666666667,11.6,16.3,338,991.87,-19.6,75,0.67,0.0,1021.97,270.0
2019-12-08 14:50,50.6304466666667,-96.9807816666667,9.7,13.6,341,992.17,-19.6,75,0.67,0.0,1022.28,270.0
2019-12-08 15:00,50.6304516666667,-96.9807783333333,11.4,15.2,340,992.17,-19.7,74,0.66,0.0,1022.29,360.0
2019-12-08 15:10,50.630445,-96.98077,12.1,15.0,339,992.26,-19.8,73,0.66,0.0,1022.39,360.0
2019-12-08 15:20,50.6304483333333,-96.9807766666667,9.8,14.1,333,992.50,-19.8,72,0.65,0.0,1022.65,360.0
2019-12-08 15:30,50.6304483333333,-96.9807733333333,9.8,14.2,339,992.69,-19.8,71,0.65,0.0,1022.86,360.0
2019-12-08 15:40,50.63045,-96.9807716666667,9.8,12.9,339,992.83,-19.7,72,0.67,0.0,1023.01,360.0
2019-12-08 15:50,50.63045,-96.9807716666667,10.7,16.0,346,992.91,-19.6,71,0.67,0.0,1023.08,360.0
2019-12-08 16:00,50.6304533333333,-96.98077,10.3,14.8,344,992.96,-19.6,70,0.66,0.0,1023.15,38.0
2019-12-08 16:10,50.6304516666667,-96.9807716666667,12.0,16.3,352,993.05,-19.5,70,0.65,0.0,1023.24,38.0
2019-12-08 16:20,50.6304533333333,-96.9807716666667,10.7,14.5,347,993.27,-19.5,69,0.64,0.0,1023.47,38.0
2019-12-08 16:30,50.6304683333333,-96.9807533333333,12.0,17.4,352,993.26,-19.4,70,0.64,0.0,1023.46,38.0
2019-12-08 16:40,50.6304516666667,-96.98076,12.9,16.6,348,993.24,-19.4,70,0.64,0.0,1023.44,38.0
2019-12-08 16:50,50.6304516666667,-96.9807733333333,11.4,16.9,353,993.38,-19.2,70,0.64,0.0,1023.58,38.0
2019-12-08 17:00,50.6304533333333,-96.980775,12.2,16.6,351,993.31,-19.0,69,0.64,0.0,1023.50,270.0
2019-12-08 17:10,50.6304516666667,-96.980775,13.7,18.0,353,993.26,-18.8,68,0.64,0.0,1023.44,270.0
2019-12-08 17:20,50.630445,-96.98078,13.5,18.5,355,993.32,-18.9,67,0.63,0.0,1023.50,270.0
2019-12-08 17:30,50.6304516666667,-96.98077,14.0,17.8,357,993.26,-19.0,67,0.63,0.0,1023.44,270.0
2019-12-08 17:40,50.6304516666667,-96.9807666666667,14.2,17.9,358,993.20,-18.8,67,0.63,0.0,1023.36,270.0
2019-12-08 17:50,50.6304516666667,-96.980765,14.3,18.0,0,993.19,-18.9,67,0.63,0.0,1023.35,270.0
2019-12-08 18:00,50.63045,-96.980765,13.4,17.3,360,993.26,-18.9,67,0.62,0.0,1023.42,90.0
2019-12-08 18:10,50.63045,-96.9807683333333,13.4,17.1,358,993.17,-18.9,66,0.62,0.0,1023.33,90.0
2019-12-08 18:20,50.6304516666667,-96.98077,11.8,16.2,357,993.15,-18.8,66,0.62,0.0,1023.30,90.0
2019-12-08 18:30,50.6304633333333,-96.9807666666667,13.4,17.2,357,993.08,-18.8,66,0.61,0.0,1023.23,90.0
2019-12-08 18:40,50.63043,-96.9807866666667,12.4,16.5,357,993.17,-18.9,66,0.61,0.0,1023.32,90.0
2019-12-08 18:50,50.6304366666667,-96.9807833333333,14.4,16.6,359,993.03,-18.9,66,0.60,0.0,1023.16,90.0
2019-12-08 19:00,50.63043,-96.9807916666667,12.8,16.2,4,993.13,-18.9,65,0.60,0.0,1023.25,213.7
2019-12-08 19:10,50.6304383333333,-96.98078,11.7,14.2,357,993.19,-18.9,65,0.60,0.0,1023.31,213.7
2019-12-08 19:20,50.63044,-96.9807533333333,11.4,14.5,360,993.17,-19.0,65,0.60,0.0,1023.30,213.7
2019-12-08 19:30,50.6304516666667,-96.9807583333333,11.3,14.7,356,993.09,-19.1,65,0.60,0.0,1023.23,213.7
2019-12-08 19:40,50.630445,-96.9807666666667,11.6,14.5,1,992.93,-19.1,65,0.60,0.0,1023.06,213.7
2019-12-08 19:50,50.6304466666667,-96.9807733333333,11.0,14.9,358,992.98,-19.2,65,0.60,0.0,1023.12,213.7
2019-12-08 20:00,50.6304466666667,-96.9807733333333,11.4,15.4,357,992.97,-19.2,64,0.60,0.0,1023.11,142.0
2019-12-08 20:10,50.6304466666667,-96.9807716666667,10.9,13.7,357,992.91,-19.3,63,0.60,0.0,1023.04,142.0
2019-12-08 20:20,50.630445,-96.9807733333333,10.6,14.3,356,992.79,-19.2,65,0.60,0.0,1022.92,142.0
2019-12-08 20:30,50.630445,-96.9807716666667,10.5,14.3,352,992.70,-19.3,65,0.60,0.0,1022.83,142.0
2019-12-08 20:40,50.6304466666667,-96.980755,8.9,12.7,345,992.83,-19.2,64,0.60,0.0,1022.97,142.0
2019-12-08 20:50,50.630445,-96.9807683333333,9.5,13.6,343,992.83,-19.3,64,0.60,0.0,1022.96,142.0
2019-12-08 21:00,50.6304416666667,-96.9807666666667,9.9,13.1,347,992.76,-19.2,64,0.60,0.0,1022.89,360.0
2019-12-08 21:10,50.6304416666667,-96.9807666666667,11.8,15.5,350,992.66,-19.2,63,0.60,0.0,1022.79,360.0
2019-12-08 21:20,50.6304416666667,-96.98077,12.3,14.8,350,992.59,-19.2,63,0.60,0.0,1022.73,360.0
2019-12-08 21:30,50.6304433333333,-96.98077,13.0,16.6,355,992.55,-19.1,64,0.60,0.0,1022.68,360.0
2019-12-08 21:40,50.6304433333333,-96.9807716666667,11.8,15.4,355,992.56,-19.1,64,0.60,0.0,1022.70,360.0
2019-12-08 21:50,50.6304433333333,-96.9807716666667,10.1,13.4,348,992.62,-19.1,65,0.60,0.0,1022.76,360.0
2019-12-08 22:00,50.6304433333333,-96.9807716666667,9.0,12.4,344,992.69,-19.2,66,0.60,0.0,1022.84,41.2
2019-12-08 22:10,50.63045,-96.9807816666667,9.6,13.8,340,992.69,-19.4,66,0.60,0.0,1022.85,41.2
2019-12-08 22:20,50.63045,-96.9807816666667,10.1,13.1,348,992.63,-19.5,67,0.60,0.0,1022.79,41.2
2019-12-08 22:30,50.63045,-96.98078,9.7,14.0,352,992.67,-19.5,67,0.60,0.0,1022.83,41.2
2019-12-08 22:40,50.63045,-96.9807783333333,8.7,11.5,344,992.68,-19.5,68,0.60,0.0,1022.85,41.2
2019-12-08 22:50,50.63045,-96.980775,10.1,12.9,346,992.69,-19.5,67,0.60,0.0,1022.85,41.2
2019-12-08 23:00,50.63045,-96.980775,7.7,11.1,336,993.04,-19.6,67,0.60,0.0,1023.22,360.0
2019-12-08 23:10,50.6304516666667,-96.980775,7.7,10.9,333,993.19,-19.7,66,0.60,0.0,1023.39,360.0
2019-12-08 23:20,50.63045,-96.980775,8.3,11.3,340,993.19,-19.7,67,0.60,0.0,1023.38,360.0
2019-12-08 23:30,50.63045,-96.9807716666667,7.4,10.9,334,993.25,-19.8,67,0.60,0.0,1023.44,360.0
2019-12-08 23:40,50.63045,-96.9807716666667,8.3,12.6,335,993.29,-19.8,67,0.60,0.0,1023.48,360.0
